Overview Statistics Trail Chart Weather Telemetry Raw packets
 

This is the latest recevied weather packets stored in our database for station/object NK7E-2. If no packets are shown the sender has not sent any weather packets the latest 10 day(s).

<< 23 24 25 26 27 28 29 >>
Time Temp. Humidity Pressure Rain* Wind** Luminosity Snow
1788098415 25.56° C 58% 1029.8 hPa 0 mm - - -
1788097815 25.56° C 56% 1029.6 hPa 0 mm - - -
1788097215 25.56° C 55% 1029.6 hPa 0 mm - - -
1788096615 26.11° C 55% 1029.5 hPa 0 mm - - -
1788096015 26.67° C 50% 1029.6 hPa 0 mm - - -
1788095415 26.67° C 51% 1029.3 hPa 0 mm - - -
1788094815 26.67° C 51% 1029.1 hPa 0 mm - - -
1788094215 26.67° C 51% 1029.2 hPa 0 mm - - -
1788093615 26.67° C 51% 1029 hPa 0 mm - - -
1788093017 26.67° C 52% 1028.9 hPa 0 mm - - -
1788092417 26.67° C 52% 1028.7 hPa 0 mm - - -
1788091817 26.67° C 52% 1028.6 hPa 0 mm - - -
1788091217 26.67° C 51% 1028.5 hPa 0 mm - - -
1788090617 26.67° C 50% 1029 hPa 0 mm - - -
1788090017 27.22° C 50% 1029.1 hPa 0 mm - - -
1788089417 27.22° C 50% 1029.1 hPa 0 mm - - -
1788088817 26.11° C 52% 1029 hPa 0 mm - - -
1788088217 26.11° C 52% 1029 hPa 0 mm - - -
1788087617 26.11° C 52% 1029.2 hPa 0 mm - - -
1788087017 26.67° C 51% 1028.8 hPa 0 mm - - -
1788086417 26.67° C 51% 1029 hPa 0 mm - - -
1788085817 26.67° C 51% 1028.9 hPa 0 mm - - -
1788085217 26.11° C 52% 1028.7 hPa 0 mm - - -
1788084617 26.11° C 54% 1028.9 hPa 0 mm - - -
1788084017 25.56° C 56% 1029.2 hPa 0 mm - - -

* Rain latest hour (hover to see other rain measurements)
** Current wind speed in m/s (hover to see current wind gust speed)